Meacham, OR

11:37 PM PDT on July 28, 2016 (GMT -0700)
Meacham

Weather History for KMEH - December, 2012

Change the Weather History Date:

Thursday, December 13, 2012

  Actual Average Record
Temperature  
Mean Temperature 20 °F -  
Max Temperature 30 °F 34 °F 48 °F (2002)
Min Temperature 10 °F 20 °F 1 °F (2005)
Degree Days  
Heating Degree Days 45    
Moisture  
Dew Point 19 °F    
Average Humidity 89    
Maximum Humidity 96    
Minimum Humidity 79    
Precipitation  
Precipitation 0.00 in - - ()
Sea Level Pressure  
Sea Level Pressure 29.95 in    
Wind  
Wind Speed 0 mph (North)    
Max Wind Speed 0 mph    
Max Gust Speed -    
Visibility 10 miles    
Events      
Averages and records for this station are not official NWS values.
T = Trace of Precipitation, MM = Missing Value Source: NWS Daily Summary

Daily Weather History Graph

Daily Weather History Graph

Search for Another Location

Airport or City:

Trip Planner

Search our weather history database for the weather conditions in past years. The results will help you decide how hot, cold, wet, or windy it might be!

Date:

Astronomy

Dec. 13, 2012 Rise Set
Actual Time 7:25 AM PST 4:10 PM PST
Civil Twilight 6:51 AM PST 4:44 PM PST
Nautical Twilight 6:14 AM PST 5:22 PM PST
Astronomical Twilight 5:38 AM PST 5:58 PM PST
Moon 7:38 AM PST (12/13) 4:59 PM PST (12/13)
Length of Visible Light 9h 52m
Length of Day
8h 44m
New Moon, 0% of the Moon is Illuminated
Dec 13
New Moon
Dec 19
First Quarter
Dec 28
Full
Jan 4
Last Quarter
Jan 11
New

Hourly Weather History & Observations

Time (PST) Temp. Dew Point Humidity Pressure Visibility Wind Dir Wind Speed Gust Speed Precip Events Conditions
12:56 AM 24.1 °F 21.9 °F 91% 29.99 in 10.0 mi Calm Calm - N/A   Overcast
1:26 AM 24.8 °F 23.0 °F 93% 29.91 in 10.0 mi Calm Calm - N/A   Overcast
1:33 AM 24.8 °F 23.0 °F 93% 29.91 in 8.0 mi Calm Calm - 0.00 in   Overcast
1:40 AM 24.8 °F 23.0 °F 93% 29.91 in 8.0 mi Calm Calm - 0.00 in   Overcast
1:56 AM 25.0 °F 23.0 °F 92% 30.00 in 10.0 mi Calm Calm - 0.00 in   Overcast
2:56 AM 23.0 °F 21.9 °F 96% 30.00 in 10.0 mi Calm Calm - N/A   Overcast
3:14 AM 24.8 °F 21.2 °F 86% 29.91 in 10.0 mi Calm Calm - N/A   Overcast
3:41 AM 24.8 °F 21.2 °F 86% 29.91 in 10.0 mi Calm Calm - N/A   Overcast
3:56 AM 24.1 °F 21.9 °F 91% 30.00 in 10.0 mi Calm Calm - N/A   Overcast
4:23 AM 24.8 °F 21.2 °F 86% 29.91 in 10.0 mi Calm Calm - N/A   Overcast
4:56 AM 24.1 °F 21.9 °F 91% 30.01 in 10.0 mi Calm Calm - N/A   Overcast
5:56 AM 24.1 °F 21.9 °F 91% 30.02 in 10.0 mi Calm Calm - N/A   Overcast
6:37 AM 21.2 °F 19.4 °F 93% 29.92 in 10.0 mi Calm Calm - N/A   Partly Cloudy
6:56 AM 19.9 °F 17.1 °F 89% 30.04 in 10.0 mi Calm Calm - N/A   Clear
7:28 AM 17.6 °F 14.0 °F 86% 29.94 in 10.0 mi Calm Calm - N/A   Partly Cloudy
7:42 AM 17.6 °F 14.0 °F 86% 29.94 in 10.0 mi Calm Calm - N/A   Mostly Cloudy
7:56 AM 16.0 °F 12.9 °F 88% 30.06 in 10.0 mi Calm Calm - N/A   Scattered Clouds
8:56 AM 18.0 °F 15.1 °F 88% 30.05 in 9.0 mi Calm Calm - N/A   Clear
9:56 AM 21.9 °F 21.0 °F 96% 30.04 in 10.0 mi Calm Calm - N/A   Clear
10:56 AM 28.9 °F 27.0 °F 92% 30.00 in 10.0 mi Calm Calm - N/A   Clear
11:56 AM 30.0 °F 25.0 °F 82% 29.98 in 10.0 mi Calm Calm - N/A   Clear
12:56 PM 30.9 °F 25.0 °F 79% 29.94 in 10.0 mi Calm Calm - N/A   Clear
1:56 PM 30.9 °F 26.1 °F 82% 29.92 in 10.0 mi Calm Calm - N/A   Clear
3:56 PM 28.4 °F 24.8 °F 86% 29.82 in 10.0 mi Calm Calm - N/A   Clear
4:56 PM 25.0 °F 21.0 °F 85% 29.92 in 10.0 mi Calm Calm - N/A   Clear
5:56 PM 21.0 °F 18.0 °F 88% 29.91 in 10.0 mi Calm Calm - N/A   Clear
6:56 PM 19.9 °F 18.0 °F 92% 29.91 in 10.0 mi Calm Calm - N/A   Clear
7:56 PM 17.1 °F 14.0 °F 88% 29.91 in 10.0 mi Calm Calm - N/A   Clear
8:56 PM 15.1 °F 12.0 °F 88% 29.92 in 10.0 mi Calm Calm - N/A   Clear
9:56 PM 12.9 °F 9.0 °F 84% 29.90 in 10.0 mi Calm Calm - N/A   Clear
10:56 PM 10.9 °F 8.1 °F 88% 29.89 in 10.0 mi Calm Calm - N/A   Clear
11:56 PM 10.9 °F 7.0 °F 84% 29.88 in 10.0 mi Calm Calm - N/A   Partly Cloudy